Weather Roundup
Issued by NWS

Home | Current Version | Previous Version | Graphics & Text | Print | Product List | Glossary Off
Versions: 1 2 3 4 5 6 7 8 9 10 11 12 13 14 15 16 17 18 19 20 21 22 23 24 25 26 27 28 29 30 31 32 33 34 35 36 37 38 39 40 41 42 43 44 45 46 47 48 49 50

000
NZUS93 KARX 251510
HRRWXR

CURRENT HOURLY OBSERVATIONS ACROSS
MUCH OF THE UPPER MISSISSIPPI VALLEY
NATIONAL WEATHER SERVICE LA CROSSE WI
1000 AM CDT SAT OCT 25 2014


...SOUTHEAST MINNESOTA...


CITY           SKY/WX    TMP DP  RH WIND       PRES   REMARKS
ROCHESTER      PTSUNNY   54  38  54 NW12G21   30.05R
ROCHESTER/MAYO FAIR      54  37  52 NW12      30.05R
WINONA         SUNNY     55  41  58 N6        30.02R
AUSTIN         MOSUNNY   54  41  62 NW10G17   30.06S
ALBERT LEA     SUNNY     55  37  50 NW5       30.08R
DODGE CENTER   PTSUNNY   54  39  58 NW13      30.05F
PRESTON        MOSUNNY   53  39  58 NW14      30.04S
OWATONNA       MOSUNNY   55  37  50 NW12      30.06S
FARIBAULT      PTSUNNY   55  36  47 NW9       30.06S
$$

...ELSEWHERE IN MINNESOTA...


CITY           SKY/WX    TMP DP  RH WIND       PRES   REMARKS
MINNEAPOLIS    MOSUNNY   55  33  43 NW14      30.05R
INTNL FALLS    SUNNY     46  32  58 W14G23    29.88S
DULUTH         SUNNY     50  31  48 NW18G28   29.91R
RED WING       MOSUNNY   57  37  47 NW9G17    30.01S
REDWOOD FALLS  SUNNY     55  35  47 NW9       30.11R
MANKATO        PTSUNNY   55  36  47 NW12      30.09R
WORTHINGTON    SUNNY     55  36  47 N10       30.14R
FAIRMONT       SUNNY     57   7  13 NW10      30.11R
$$

...SOUTHWEST WISCONSIN...


CITY           SKY/WX    TMP DP  RH WIND       PRES   REMARKS
LA CROSSE      SUNNY     59  42  53 NW12      30.00R
PRAIRIE DU CHI SUNNY     57  44  62 NW3       30.02R
BOSCOBEL       SUNNY     59  47  64 W3        30.01R
LONE ROCK      SUNNY     62  49  62 W6        29.99R
PLATTEVILLE    SUNNY     58  48  67 W9        30.01S
FORT MC COY    SUNNY     58  33  38 NW13G18   29.99R
CAMP DOUGLAS   SUNNY     57  43  58 W12       29.97R
VIROQUA        FAIR      56  42  59 NW9       30.00R
WIS DELLS      SUNNY     58  40  50 NW6       29.96R
$$

...ELSEWHERE IN WISCONSIN...


CITY           SKY/WX    TMP DP  RH WIND       PRES   REMARKS
MILWAUKEE      MOSUNNY   61  46  57 NW10      29.91R
MADISON        MOSUNNY   60  48  64 W8        29.97R
GREEN BAY      SUNNY     58  43  57 W16       29.85R
EAU CLAIRE     SUNNY     54  36  50 NW15      29.98R
BLACK RVR FLS  FAIR      57  36  45 W13G20    29.97S
MEDFORD        SUNNY     51  37  58 NW14G25   29.92R
WAUSAU         SUNNY     54  36  50 W18G25    29.88R
WIS RAPIDS     SUNNY     56  38  50 NW16G23   29.94R
MARSHFIELD     SUNNY     54  38  54 NW17G25   29.92R
RICE LAKE      SUNNY     52  35  51 W9        29.99R
$$

...NORTHEAST IOWA...


CITY           SKY/WX    TMP DP  RH WIND       PRES   REMARKS
DECORAH        MOSUNNY   55  43  62 NW7       30.04R
MASON CITY     SUNNY     57  41  55 NW12      30.10R
CHARLES CITY   SUNNY     55  45  67 NW9       30.08R
OELWEIN        SUNNY     54  48  82 NW10      30.07R
$$

...ELSEWHERE IN IOWA...


CITY           SKY/WX    TMP DP  RH WIND       PRES   REMARKS
DES MOINES     MOSUNNY   61  45  55 N7        30.10R
IOWA CITY      SUNNY     59  49  69 N7        30.06R
FORT DODGE     SUNNY     55  41  58 N6        30.12R
$$

...NORTHERN ILLINOIS...


CITY           SKY/WX    TMP DP  RH WIND       PRES   REMARKS
CHICAGO-OHARE  MOSUNNY   63  51  65 NW12      29.93R
CHICAGO-MIDWAY MOSUNNY   64  54  69 W15       29.93S
MOLINE         SUNNY     62  50  64 N5        30.02S
ROCKFORD       SUNNY     62  50  64 NW14      30.00R
PEORIA         FOG       56  53  90 W6        30.02R VSB 1/2
$$

NOTE: "FAIR" INDICATES FEW OR NO CLOUDS BELOW 12,000 FEET WITH NO
SIGNIFICANT WEATHER AND/OR OBSTRUCTIONS TO VISIBILITY. WIND
SPEEDS ARE IN MILES-PER-HOUR.



USA.gov is the U.S. government's official web portal to all federal, state and local government web resources and services.